Regional Weather Roundup
Issued by NWS

Home | Current Version | Previous Version | Text Only | Print | Product List | Glossary Off
Versions: 1 2 3 4 5 6 7 8 9 10 11 12 13 14 15 16 17 18 19 20 21 22 23 24 25 26 27 28 29 30 31 32 33 34 35 36 37 38 39 40 41 42 43 44 45 46 47 48 49 50

000
ASUS45 KCYS 200310
RWRWY

WYOMING REGIONAL WEATHER ROUNDUP
NATIONAL WEATHER SERVICE CHEYENNE WY
900 PM MDT FRI SEP 19 2014

NOTE:  "FAIR" INDICATES FEW OR NO CLOUDS BELOW 12,000 FEET
WITH NO SIGNIFICANT WEATHER AND/OR OBSTRUCTIONS TO VISIBILITY.

WYZ001-200400-
YELLOWSTONE NATIONAL PARK

CITY           SKY/WX    TMP DP  RH WIND       PRES   REMARKS
LK YELLOWSTONE   N/A     45  41  86 NW3       30.29R
W YELLOWSTONE  NOT AVBL

$$
WYZ002>013-054>058-071-098>099-200400-
NORTHERN WYOMING

CITY           SKY/WX    TMP DP  RH WIND       PRES   REMARKS
JACKSON        CLEAR     55  41  58 S3        30.20R
CODY             N/A    N/A N/A N/A MISG        N/A
GREYBULL       CLEAR     72  43  35 NW9       29.97R
WORLAND        CLEAR     60  47  61 SW7       29.98R
SHERIDAN       PTCLDY    58  49  72 S5        30.02R
BUFFALO        PTCLDY    62  45  53 NW9       30.08R
GILLETTE       MOCLDY    60  48  64 N5        30.03R
HULETT         FAIR      64  45  48 MISG      30.03
NEWCASTLE      FAIR      63  43  48 N6        29.98

$$
WYZ014>020-022>026-101>103-200400-
CENTRAL WYOMING

CITY           SKY/WX    TMP DP  RH WIND       PRES   REMARKS
BIG PINEY      CLEAR     53  38  56 N9        30.24R
PINEDALE       CLEAR     50  37  62 NW7       30.26R
DUBOIS         FAIR      57  34  41 W15       30.22R
LANDER         CLEAR     68  36  30 W10       30.07R
RIVERTON       CLEAR     67  37  33 NW16      30.08R
CASPER         CLEAR     63  39  41 N8        30.06R
DOUGLAS        CLEAR     69  43  38 NE7       30.04R

$$
WYZ021-027>030-104>119-200400-
SOUTHERN WYOMING

CITY           SKY/WX    TMP DP  RH WIND       PRES   REMARKS
EVANSTON       CLEAR     62  40  44 N6        30.24R
KEMMERER       CLEAR     55  37  50 NW8       30.26R
FORT BRIDGER   FAIR      62  39  44 NW6       30.26R
ROCK SPRINGS   CLEAR     64  35  34 W12       30.19R
DIXON          FAIR      56  45  66 E3        30.19R
RAWLINS        CLEAR     63  35  35 S3        30.17R
SARATOGA       FAIR      59  41  51 W8        30.20R
LARAMIE        CLEAR     57  39  51 SW7       30.18R
CHEYENNE       PTCLDY    68  40  35 NW5       30.10R
TORRINGTON     CLEAR     65  49  56 NE7       29.95R
PINE BLUFFS    FAIR      63  54  72 S8        30.04R

$$



USA.gov is the U.S. government's official web portal to all federal, state and local government web resources and services.